Tracking 17842 objects as of 31-August-2016
HD Live streaming from Space Station
objects crossing your sky now

SL-8 R/B

Track SL-8 R/B now!
10-day predictions


NORAD ID: 6271
Int'l Code: 1972-087J
Perigee: 1,473.2 km
Apogee: 1,600.6 km
Inclination: 74.0 °
Period: 116.6 minutes
Semi major axis: 7907 km
RCS: 6.2723 m2 (large)
Launch date: November 1, 1972
Source: Commonwealth of Independent States (former USSR) (CIS)
Launch site: PLESETSK MISSILE AND SPACE COMPLEX (PKMTR)

Note: This is a ROCKET BODY
Your satellite tracking list
Your tracking list is empty





NASA's NSSDC Master Catalog

Two Line Element Set (TLE):
1 06271U 72087J   16243.17959810 -.00000036  00000-0 -16231-3 0  9993
2 06271  74.0413 310.2936 0080506 282.3018 105.1661 12.34556006975445
Source of the keplerian elements: AFSPC

N2YO: 521